STARLINK-3748, 52267

Orbit data source: Space-Track

STARLINK-3748, 52267 is a payload satellite owned by SpaceX/Seattle (US) in LEO that was launched on Thu, 21 Apr 2022 UTC via an FALCON 9 launch vehicle from the Air Force Eastern Test Range (AFETR). Payload-class satellites include a variety of spacecraft equipped with specific instruments for various scientific and technological missions. These include communications satellites like Starlink; space stations such as the ISS; scientific satellites like the Hubble; Earth observation satellites from companies like Planet Labs, Umbra, and HawkEye 360; GPS; miniature CubeSats for education and research; and military/defense satellites.

Loading next visibility...
Identifier
52267, 2022-041G
Orbit
LEO
Country
Flag of USUS
Related business
Manufacturer
SpaceX/Seattle
Mission
Operational Commercial Communications
Bus & Motor
STARLINK, Unknown motor
Mass
297 kg wet, ~275 kg dry
Launch date (UTC)
2022-04-21 (4 years ago)
Launch vehicle
FALCON 9
Launch site
Air Force Eastern Test Range (AFETR)
Object type
Payload
Rocket body
Debris
Shape & HBR
Box + 1 Pan, 10.1 m
Radar Cross Section
11.087 m², Large (>1 m²)

Expand to show TLE details & history
Last TLE update: 17 hours ago

TLE from 17 hours ago
0 STARLINK-3748
1 52267U 22041G   26175.21124340  .00000537  00000-0  51868-4 0  9996
2 52267  53.1595 350.7944 0001253  88.1163 271.9972 15.08831184230441
Epoch: 2026-06-24T05:04Z
TLE epoch observation values (Epoch: 2026-06-24T05:04:11.429Z)
Latitude
-0.00003°
Longitude
2.37505°
Altitude
540.632 km
Speed
7.593 km/s
True Right ascension
23h 23m 10s
True Declination
0° 00' 00"
Sunlit
Object was in daylight at epoch
Visualization orbit readout
Latitude
Unknown
Longitude
Unknown
Altitude
Unknown
Speed
Unknown
Apparent Right ascension
Unknown
Apparent Declination
Unknown
Sunlit
N/A
Visualization observer readout
Local Sidereal Time
08:54:16
Azimuth
Unknown
Elevation
Unknown
Doppler factor
Unknown
Orbital elements
Apogee altitude
540.891 km
Perigee altitude
539.158 km
Semi-major axis
6,918.162 km
Eccentricity
0.00013
Inclination
53.1595°
RAAN
350.7944°
Arg. of periapsis
88.1163°
True anomaly
271.98285°
Mean anomaly
271.9972°
Eccentric anomaly
271.99003°
Mean motion
3.77187 °/min
Orbital period
95.44 mins
BSTAR
0.000051868
Loading maneuver chart data...
Computing Atmospheric mass density...
Loading historical data...
Loading historical data...
Loading historical data...
Loading historical data...
Loading historical data...
Loading historical data...
Loading historical data...

Documentation

Showing up to 5 results
|